New River MCAS, NC

11:02 AM EDT on October 23, 2017 (GMT -0400)
New River Marine Corps Air Station

Weather History for KNCA - September, 2013

Change the Weather History Date:

Monday, September 16, 2013

  Actual Average Record
Temperature  
Mean Temperature 76 °F -  
Max Temperature 87 °F 80 °F 89 °F (1998)
Min Temperature 66 °F 63 °F 57 °F (2000)
Cooling Degree Days 11    
Growing Degree Days 26 (Base 50)    
Moisture  
Dew Point 69 °F    
Average Humidity 85    
Maximum Humidity 96    
Minimum Humidity 59    
Precipitation  
Precipitation 0.49 in - - ()
Sea Level Pressure  
Sea Level Pressure 30.11 in    
Wind  
Wind Speed 4 mph (North)    
Max Wind Speed 25 mph    
Max Gust Speed 33 mph    
Visibility 8 miles    
Events Fog , Rain , Thunderstorm    
Averages and records for this station are not official NWS values.
T = Trace of Precipitation, MM = Missing Value Source: NWS Daily Summary

Daily Weather History Graph

Daily Weather History Graph

Search for Another Location

Airport or City:

Trip Planner

Search our weather history database for the weather conditions in past years. The results will help you decide how hot, cold, wet, or windy it might be!

Date:

Astronomy

Sep. 16, 2013 Rise Set
Actual Time 6:53 AM EDT 7:14 PM EDT
Civil Twilight 6:28 AM EDT 7:40 PM EDT
Nautical Twilight 5:58 AM EDT 8:09 PM EDT
Astronomical Twilight 5:28 AM EDT 8:39 PM EDT
Moon 5:17 PM EDT (9/16) 3:43 AM EDT (9/16)
Length of Visible Light 13h 11m
Length of Day
12h 21m
Waxing Gibbous, 90% of the Moon is Illuminated
Sep 16
Waxing Gibbous
Sep 19
Full
Sep 26
Last Quarter
Oct 4
New
Oct 11
First Quarter

Hourly Weather History & Observations

Time (EDT) Temp. Heat Index Dew Point Humidity Pressure Visibility Wind Dir Wind Speed Gust Speed Precip Events Conditions
12:56 AM 69.1 °F - 66.9 °F 93% 30.16 in 10.0 mi Calm Calm - N/A   Scattered Clouds
1:56 AM 68.0 °F - 66.9 °F 96% 30.15 in 9.0 mi Calm Calm - N/A   Partly Cloudy
2:56 AM 68.0 °F - 66.9 °F 96% 30.13 in 9.0 mi Calm Calm - N/A   Clear
3:56 AM 68.0 °F - 66.0 °F 93% 30.12 in 10.0 mi Calm Calm - N/A   Clear
4:56 AM 66.0 °F - 64.9 °F 96% 30.12 in 8.0 mi Calm Calm - N/A   Clear
5:56 AM 66.0 °F - 64.9 °F 96% 30.13 in 9.0 mi Calm Calm - N/A   Partly Cloudy
6:56 AM 66.0 °F - 64.9 °F 96% 30.13 in 8.0 mi Calm Calm - N/A   Partly Cloudy
7:56 AM 69.1 °F - 66.0 °F 90% 30.13 in 10.0 mi Calm Calm - N/A   Scattered Clouds
8:56 AM 75.9 °F - 71.1 °F 85% 30.13 in 10.0 mi Calm Calm - N/A   Scattered Clouds
9:56 AM 81.0 °F 85.2 °F 72.0 °F 74% 30.14 in 10.0 mi SSW 6.9 mph - N/A   Clear
10:56 AM 84.0 °F 89.0 °F 71.1 °F 65% 30.12 in 10.0 mi SW 8.1 mph - N/A   Clear
11:56 AM 84.0 °F 88.4 °F 70.0 °F 63% 30.11 in 10.0 mi Variable 5.8 mph - N/A   Mostly Cloudy
12:56 PM 86.0 °F 90.7 °F 70.0 °F 59% 30.08 in 10.0 mi SW 3.5 mph - N/A   Mostly Cloudy
1:19 PM 77.0 °F - 68.0 °F 74% 30.11 in 1.0 mi NW 25.3 mph 33.4 mph 0.16 in Rain Light Rain
1:23 PM 71.6 °F - 69.8 °F 94% 30.10 in 0.1 mi NW 20.7 mph 33.4 mph 0.31 in Fog , Rain Heavy Rain
1:29 PM 71.6 °F - 69.8 °F 94% 30.09 in 0.1 mi NW 19.6 mph 28.8 mph 0.45 in Fog , Rain , Thunderstorm Heavy Thunderstorms and Rain
1:36 PM 73.4 °F - 71.6 °F 94% 30.08 in 1.0 mi North 11.5 mph - 0.48 in Rain , Thunderstorm Light Thunderstorms and Rain
1:47 PM 75.2 °F - 71.6 °F 89% 30.07 in 10.0 mi North 13.8 mph - 0.48 in   Overcast
1:56 PM 75.9 °F - 72.0 °F 87% 30.08 in 10.0 mi NNW 9.2 mph - 0.48 in   Overcast
2:03 PM 77.0 °F - 71.6 °F 83% 30.07 in 10.0 mi Variable 4.6 mph - N/A   Partly Cloudy
2:56 PM 79.0 °F - 71.1 °F 77% 30.07 in 10.0 mi ESE 3.5 mph - N/A   Scattered Clouds
3:56 PM 80.1 °F 83.6 °F 71.1 °F 74% 30.06 in 10.0 mi ESE 3.5 mph - N/A   Mostly Cloudy
4:56 PM 80.1 °F 83.8 °F 72.0 °F 76% 30.05 in 10.0 mi ESE 8.1 mph - N/A   Mostly Cloudy
5:56 PM 78.1 °F - 71.1 °F 79% 30.06 in 10.0 mi SE 4.6 mph - N/A   Mostly Cloudy
6:56 PM 77.0 °F - 71.1 °F 82% 30.07 in 10.0 mi Calm Calm - N/A   Mostly Cloudy
7:56 PM 73.9 °F - 72.0 °F 93% 30.08 in 10.0 mi Calm Calm - N/A   Mostly Cloudy
8:56 PM 73.0 °F - 72.0 °F 96% 30.10 in 9.0 mi Calm Calm - N/A   Mostly Cloudy
10:02 PM 73.4 °F - 68.0 °F 83% 30.12 in 10.0 mi North 13.8 mph - N/A   Mostly Cloudy
10:41 PM 71.6 °F - 64.4 °F 78% 30.13 in 9.0 mi NNE 10.4 mph - 0.00 in Rain Light Rain
10:56 PM 71.1 °F - 64.9 °F 81% 30.14 in 9.0 mi NNE 10.4 mph - 0.01 in Rain Light Rain
11:56 PM 70.0 °F - 64.9 °F 84% 30.15 in 10.0 mi North 11.5 mph - 0.00 in   Mostly Cloudy